SCP
1 1 1 1 1 1 1 1 1 1 1 1 1 0 0 0 0 0 0 0 0 0 0 0 0 0 0 0 0 0 0 0 0 0 0 0 0 0 0 0 0 0 0
1 1 1 1 1 1 1 1 1 1 1 1 1 1 1 0 0 0 0 0 0 0 0 0 0 0 0 0 0 0 0 0 0 0 0 0 0 0 0 0 0 0 0
1 1 1 1 1 1 1 1 1 1 1 1 1 1 1 0 0 0 0 0 0 0 0 0 0 0 0 0 0 0 0 0 0 0 0 0 0 0 0 0 0 0 0
1 1 1 1 1 1 1 1 1 1 1 1 1 1 1 0 0 0 0 0 0 0 0 0 0 0 0 0 0 0 0 0 0 0 0 0 1 0 0 0 0 0 0
2 2 1 1 1 1 1 1 1 1 1 1 1 1 1 0 0 0 0 0 0 0 0 0 0 0 0 0 0 0 0 0 0 0 0 0 0 0 0 0 0 0 0
2 2 1 1 1 1 1 1 1 1 1 1 1 1 1 0 0 0 0 0 0 1 1 0 0 0 0 0 0 0 0 0 0 0 0 0 1 0 0 0 0 0 0
2 2 2 1 1 1 1 1 1 1 1 1 1 1 1 0 0 0 0 0 1 1 1 1 1 0 0 0 0 0 0 0 0 0 0 0 1 1 0 0 0 0 0
2 2 2 1 1 1 1 1 1 1 1 1 1 1 1 1 0 0 0 0 1 1 1 1 1 0 0 0 0 0 0 0 0 0 0 0 0 0 0 0 0 0 0
2 2 2 1 1 1 1 1 1 1 1 1 1 1 1 1 0 0 0 0 1 1 1 1 1 1 0 0 0 1 1 0 0 0 0 0 0 0 0 0 0 0 0
2 2 2 2 1 1 1 1 1 1 1 1 1 1 1 1 0 0 0 0 1 1 1 1 1 0 0 0 0 1 1 1 0 0 0 0 0 0 0 0 0 0 0
2 2 2 2 2 1 1 1 1 1 1 1 1 1 1 1 0 0 0 0 1 1 1 1 0 0 0 0 0 0 1 0 0 0 0 0 0 0 0 0 0 0 0
2 2 2 2 2 2 2 2 2 2 1 1 1 1 1 1 1 0 0 0 0 1 1 0 0 0 0 0 0 0 0 0 0 0 0 0 0 0 0 0 1 1 0
3 3 3 2 2 2 2 2 2 2 1 1 1 1 1 1 1 0 0 0 0 0 0 0 0 0 0 0 0 0 0 0 0 0 0 0 0 0 0 1 1 1 1
3 3 3 3 2 2 2 2 2 1 1 1 1 1 1 1 1 1 0 0 0 0 0 0 0 0 0 0 0 0 0 0 0 0 0 0 0 0 1 1 1 1 0
3 3 3 2 2 2 2 2 1 1 1 1 1 1 1 1 1 0 0 0 0 0 0 0 0 0 0 0 0 0 0 0 0 0 0 0 0 0 0 1 1 0 0
3 3 2 2 2 2 1 1 1 1 1 0 0 0 0 0 0 0 0 0 0 0 0 1 1 1 1 1 1 1 0 1 0 0 0 0 0 0 0 0 0 0 0
2 2 2 1 1 1 1 1 1 1 0 0 0 0 0 0 0 0 0 0 0 0 1 1 1 1 1 1 1 1 1 1 0 0 0 0 0 0 0 0 0 0 0
2 2 1 1 1 1 1 1 1 1 0 0 0 0 0 0 0 0 0 0 0 0 1 1 1 1 1 1 1 1 1 1 0 0 0 0 0 0 0 0 0 0 0
1 1 1 1 1 1 1 1 1 1 1 1 0 0 0 0 0 0 0 0 0 0 1 1 1 1 1 1 1 1 1 1 0 0 0 0 0 0 0 0 0 0 0
1 1 1 1 1 1 1 1 1 1 1 1 1 0 0 0 0 0 0 0 0 0 1 1 1 1 1 1 1 1 1 0 0 0 0 0 0 0 0 0 0 0 0
1 1 1 1 1 1 1 1 1 1 1 1 1 1 0 0 0 0 0 0 0 0 1 1 1 1 1 1 1 1 1 0 0 0 0 0 0 0 0 0 0 0 0
1 1 1 1 1 1 1 1 1 1 1 1 1 1 0 0 0 0 0 0 0 0 0 1 1 1 0 0 1 1 0 0 0 0 0 0 0 0 0 0 0 0 0
1 1 1 1 1 1 1 1 1 1 1 1 1 1 0 1 1 1 0 0 0 0 0 0 0 0 0 0 0 0 0 0 0 0 0 0 0 0 0 0 0 0 0
1 1 1 1 1 1 1 1 1 1 1 1 1 1 0 1 0 0 0 0 0 0 0 0 0 0 0 0 0 0 0 0 0 0 0 0 0 0 0 0 0 0 0
0 0 0 0 1 1 1 1 1 1 1 1 0 0 0 0 0 0 0 0 0 0 0 0 0 0 0 0 0 0 0 0 0 0 0 0 0 0 0 0 0 0 0
0 0 0 0 0 0 0 0 1 1 1 0 0 0 0 0 0 0 0 0 0 0 0 0 0 0 0 0 0 0 0 0 0 0 0 0 0 0 0 0 0 0 0
Wind_Speed
7 6 4 5 4 3 2 3 2 1 2 1 1 1 1 1 1 0 0 1 1 0 0 0 0 1 1 1 1 1 1 2 2 1 1 2 2 1 2 2 3 4 4
7 6 5 5 4 4 3 2 2 2 2 2 1 1 2 2 1 0 1 1 1 1 1 1 0 0 1 1 1 1 0 1 2 2 1 1 1 1 2 2 2 3 4
8 7 6 5 4 3 3 3 3 2 2 2 2 1 1 1 1 1 1 1 1 1 1 1 1 1 1 1 1 0 1 0 1 2 2 1 1 1 1 1 2 1 3
7 7 6 6 5 4 3 3 3 3 2 2 2 1 1 1 1 1 1 1 1 1 1 1 0 0 0 0 0 0 0 0 1 1 1 1 1 1 1 2 1 2 2
7 7 6 5 5 4 4 3 3 3 3 2 2 2 1 1 1 1 1 2 1 1 1 1 1 2 2 1 0 1 0 1 1 1 1 1 1 1 1 2 1 1 1
6 6 6 5 5 5 4 4 3 3 2 3 2 2 1 1 3 3 1 0 1 1 1 1 2 2 2 2 2 1 0 1 1 1 1 1 1 1 1 2 1 1 2
6 6 6 6 6 5 5 4 4 3 3 3 2 2 2 3 4 3 2 0 0 0 0 0 1 1 2 1 1 2 2 2 2 2 2 2 1 1 1 2 2 2 3
7 6 6 6 6 5 4 4 4 3 3 2 2 2 2 2 3 2 1 1 0 0 1 1 1 0 0 0 1 1 1 2 3 3 2 2 2 1 1 2 3 3 3
8 7 7 6 6 5 5 4 4 4 3 3 3 3 2 2 3 2 1 1 1 2 2 0 1 1 0 0 1 1 2 2 2 2 3 3 3 3 2 1 2 2 3
7 7 7 6 6 6 5 4 4 3 4 3 3 3 3 3 4 3 2 1 1 2 1 1 2 1 1 1 1 2 3 3 2 2 2 3 4 4 5 4 3 3 3
5 6 7 7 6 6 5 4 4 4 4 4 3 3 4 4 5 5 5 2 2 2 2 1 1 2 2 2 2 2 3 3 3 3 3 3 3 3 3 4 3 3 3
4 6 7 7 7 7 5 5 5 5 4 4 4 3 3 3 4 5 5 4 3 2 1 0 1 3 4 4 3 3 3 3 2 2 2 2 2 2 2 3 3 4 4
4 4 5 5 5 4 6 5 5 4 4 4 3 3 3 2 3 5 6 5 4 2 1 2 0 3 3 4 5 4 2 2 2 3 3 2 2 2 2 2 2 3 4
4 4 4 4 4 4 3 4 4 4 4 3 3 3 3 3 2 2 3 3 3 2 2 2 2 4 4 3 2 2 2 2 3 3 3 2 2 2 2 2 2 2 3
4 4 4 4 4 3 3 2 3 2 2 3 2 2 2 2 2 3 3 2 2 2 2 2 2 2 2 2 2 2 2 2 3 3 3 3 2 2 2 2 2 2 3
4 3 4 4 4 4 4 2 2 2 3 4 3 2 2 2 4 4 3 2 2 3 2 2 2 2 2 2 2 2 2 2 2 2 2 2 2 2 2 2 2 3 3
4 4 4 4 4 4 4 4 3 2 1 2 3 3 3 4 4 4 3 1 1 3 3 3 2 3 3 3 2 2 2 2 2 2 2 2 2 2 2 2 2 2 3
4 4 4 4 4 4 4 4 4 4 4 2 3 5 6 6 5 5 4 2 1 3 4 3 3 3 3 2 2 2 2 1 1 2 1 1 2 2 2 2 2 2 3
4 3 3 3 4 4 4 4 4 4 4 3 3 3 5 5 5 5 5 3 4 4 4 4 3 3 2 2 2 2 1 1 1 1 1 1 1 2 2 3 2 3 3
4 4 4 4 4 4 5 5 4 4 4 4 4 4 5 4 3 4 5 5 4 4 4 4 3 2 2 2 1 1 1 1 1 1 1 1 2 2 3 3 3 3 3
3 4 5 4 4 4 4 4 3 3 4 4 4 5 8 6 5 5 5 5 5 4 3 2 2 2 2 1 1 2 1 1 0 1 1 2 2 2 3 3 3 3 3
3 3 4 4 3 3 3 3 3 3 3 3 3 5 9 6 5 4 4 4 4 3 2 2 1 1 2 2 1 1 1 1 1 2 2 2 2 3 3 3 3 3 3
3 3 3 2 2 3 3 4 4 3 3 3 3 3 5 5 3 3 3 3 2 2 2 1 1 2 2 1 0 1 1 1 1 2 3 3 3 3 3 4 4 4 3
4 3 3 2 2 2 3 3 3 3 3 2 3 3 3 3 3 3 2 2 2 2 2 2 1 1 1 1 0 1 1 1 2 2 3 4 4 3 3 3 3 4 3
3 3 2 2 2 2 2 2 3 2 1 1 1 1 2 2 2 1 1 1 1 1 1 1 0 0 1 1 1 1 1 1 1 2 3 3 4 4 4 4 3 4 3
3 3 2 2 2 2 2 2 2 1 1 1 1 1 1 1 1 1 1 1 1 1 1 1 1 1 1 1 2 3 2 1 1 2 3 3 3 3 4 4 5 4 4
Wind_Direction
173 174 168 167 177 180 172 162 166 157 140 140 148 156 156 144 133 92 175 165 163 218 266 135 197 356 343 341 350 42 80 114 127 122 104 110 109 95 147 183 162 174 177
169 166 167 165 172 177 169 156 155 155 147 150 164 167 175 150 140 155 272 79 89 82 40 18 334 31 32 345 1 41 69 149 140 142 145 147 167 181 186 211 191 197 182
167 169 164 167 170 174 164 156 155 152 154 153 156 157 162 146 153 145 89 64 59 70 73 31 9 1 23 23 39 338 242 157 136 147 162 157 179 198 189 231 236 245 212
162 163 163 169 170 169 163 156 157 148 152 157 151 153 152 133 141 143 144 144 122 101 100 98 72 33 64 292 179 303 345 356 163 166 166 177 189 196 182 239 246 245 239
158 161 162 163 162 158 155 159 155 155 165 154 153 156 154 163 171 144 176 172 168 162 154 134 110 88 76 47 35 42 351 300 251 225 185 171 205 188 235 244 247 257 241
157 161 158 160 158 161 159 159 155 160 165 155 162 161 175 161 93 95 85 176 167 178 172 154 154 134 128 113 75 61 98 251 290 284 285 255 253 245 259 262 254 259 260
158 162 160 160 159 165 171 166 168 169 171 166 164 158 133 92 83 90 73 316 137 104 135 182 236 142 148 153 181 215 230 245 234 232 268 276 265 268 264 271 274 263 261
165 167 163 163 164 168 169 168 168 166 174 175 178 164 152 130 116 106 62 208 269 276 254 233 252 63 352 129 205 206 243 254 240 228 249 270 274 303 250 256 263 262 259
171 171 169 169 166 170 172 174 174 171 176 188 177 170 163 150 154 153 157 213 240 261 260 201 124 135 15 44 247 262 265 261 247 244 241 252 264 266 249 270 284 287 281
174 173 168 167 169 175 176 179 178 176 187 189 179 179 176 171 171 175 185 230 239 250 246 164 106 74 92 103 263 266 275 284 287 266 251 249 244 239 227 219 241 263 278
172 167 167 171 175 176 174 176 177 185 191 194 189 185 180 180 175 184 188 227 255 251 234 206 165 160 176 209 239 257 264 284 275 257 249 236 239 236 216 213 222 240 258
167 169 171 174 187 181 173 180 184 189 193 197 193 195 185 177 170 181 189 213 255 286 294 337 148 177 203 220 231 263 281 291 278 272 268 258 250 244 235 230 229 231 240
162 167 171 174 175 168 174 180 185 190 200 202 196 198 194 183 165 173 189 211 234 256 320 358 338 202 220 228 233 252 267 269 275 278 278 277 272 266 259 247 242 240 250
168 165 166 167 169 171 181 179 183 190 198 197 196 200 186 174 165 167 191 207 216 229 259 266 226 217 237 257 244 224 227 246 263 272 284 287 288 280 272 267 259 255 256
164 160 164 167 162 163 165 167 178 166 183 193 200 196 183 176 178 171 181 194 211 217 223 220 220 212 227 230 223 222 227 229 251 270 274 280 288 289 281 282 277 275 269
169 176 182 176 169 173 168 159 78 128 142 139 130 133 138 134 143 146 158 184 211 201 205 224 226 233 246 252 250 240 227 232 251 266 268 274 287 293 291 288 278 276 281
181 187 189 182 176 179 185 183 174 161 132 137 162 153 159 156 152 161 165 175 220 178 206 238 239 235 238 245 248 254 253 235 235 256 265 279 287 293 291 286 282 286 287
195 192 196 191 181 187 195 196 198 194 190 194 192 186 184 179 178 188 176 146 203 200 224 233 244 247 243 247 251 244 250 251 244 257 264 282 289 292 292 292 286 290 290
208 206 199 201 200 199 195 202 208 205 203 200 185 170 187 181 187 203 184 210 227 231 233 233 237 244 248 245 248 247 240 234 238 251 254 277 284 286 285 288 287 288 280
216 214 211 215 211 206 205 207 211 205 197 200 199 181 167 170 189 195 204 220 236 237 237 240 246 252 255 252 249 248 257 246 245 267 286 279 280 282 287 292 294 292 283
211 201 211 222 227 218 216 210 208 210 208 204 200 177 175 194 208 208 207 214 229 236 238 237 243 263 270 259 257 252 258 298 318 303 294 280 277 281 283 283 284 284 288
219 211 213 215 216 221 223 218 222 219 217 211 190 177 184 209 219 215 215 220 225 224 228 233 254 269 292 297 292 322 345 359 345 326 310 298 296 292 290 286 283 285 288
252 239 224 217 215 207 214 217 219 221 215 201 189 184 189 215 219 212 213 219 217 216 205 215 262 277 248 235 149 60 350 319 305 294 291 291 293 290 286 287 290 294 297
242 238 222 209 223 225 226 225 221 218 211 205 201 192 184 196 216 209 215 215 207 211 209 206 220 250 341 30 34 65 57 5 321 294 289 282 283 284 286 292 294 293 295
247 245 232 208 217 238 245 246 238 226 211 193 185 202 201 199 220 214 216 211 207 196 184 167 143 81 82 61 48 70 91 73 358 320 291 280 288 292 292 291 293 293 292
237 252 251 233 223 231 234 239 241 225 208 198 190 215 216 202 210 213 214 217 224 207 179 172 166 136 99 87 80 96 110 102 356 309 291 283 287 294 299 295 296 297 294